SCP
-0 0 0 0 0 0 0 0 0 0 0 0 0 -0 0 0 0 0 0 0 0 0 0 0 0 0 0 0 0 0 0 0 0 0 0 0 0 0 0 0 0 0 0 0 0
-0 -0 -0 -0 -0 -0 0 -0 0 0 0 0 0 0 0 0 0 -0 -0 0 0 0 0 0 0 0 0 0 0 0 0 0 0 0 0 0 0 0 0 0 0 0 0 0 -1
-0 -0 -0 -0 -0 0 0 0 -0 0 0 0 0 0 0 0 0 0 0 -0 0 -0 -0 0 0 0 0 0 0 0 0 0 0 0 0 0 0 0 0 0 0 0 0 0 -0
-0 -0 -0 -0 -0 -0 -0 -0 -0 -0 0 0 0 0 0 0 0 0 0 0 0 -0 -0 -0 0 0 0 0 0 0 0 0 0 0 0 0 0 0 0 0 0 0 0 0 0
-0 -0 -0 -0 -0 -0 -0 -0 -0 -0 0 0 0 0 0 0 0 0 0 0 0 0 -0 0 0 0 0 0 0 0 0 0 0 0 0 0 0 0 0 0 0 0 0 0 0
0 -0 -0 -0 -0 -0 -0 0 0 0 0 0 0 0 0 0 0 0 0 0 -0 -0 -0 -0 -0 -0 0 0 0 0 0 0 0 0 0 0 0 0 0 0 0 0 0 0 0
0 0 0 -0 -0 -0 -0 0 0 0 0 0 0 0 0 0 0 0 0 0 0 0 0 -0 -0 -0 -0 0 0 0 0 0 0 0 0 0 0 0 0 0 0 0 0 0 0
0 0 0 0 -0 -0 -0 0 0 0 0 0 0 0 0 0 0 0 0 0 0 0 0 0 0 0 0 0 0 0 0 0 0 0 0 0 0 0 0 -0 0 0 0 0 0
0 0 0 0 0 0 -0 0 0 0 0 0 0 0 0 0 0 0 0 0 0 0 0 0 0 0 0 0 -0 0 0 0 0 0 0 0 0 0 0 0 0 0 0 0 0
0 0 0 0 0 0 0 0 0 0 0 0 0 0 0 0 0 0 0 0 0 0 0 0 0 0 0 0 -0 -0 0 -0 0 0 0 0 0 0 0 0 0 0 0 0 0
0 0 0 0 0 0 0 0 0 0 0 0 0 0 0 0 0 0 0 0 0 0 0 0 0 0 0 0 -0 -0 0 0 0 0 0 0 0 0 0 0 0 0 0 0 0
0 0 0 0 0 0 0 0 0 0 0 0 0 0 0 0 0 0 0 0 0 0 0 0 0 0 0 0 0 0 -0 0 0 0 0 0 0 0 0 0 0 0 0 0 0
0 0 0 0 0 0 0 0 0 0 0 0 0 0 0 0 0 0 0 0 0 0 0 0 0 0 0 0 0 0 -0 -0 0 0 0 0 0 0 0 0 0 0 0 0 0
0 0 0 0 0 0 0 0 0 0 0 0 0 0 0 0 0 0 0 0 0 0 0 0 0 0 0 0 0 0 0 -0 0 0 0 0 0 0 -0 0 0 0 0 0 0
0 0 0 0 0 0 0 0 0 0 0 0 0 0 0 0 0 0 0 0 0 0 0 0 0 0 0 0 0 0 0 0 0 0 0 0 0 -0 0 0 0 0 0 0 0
0 0 0 0 0 0 0 0 0 0 0 0 0 0 0 0 0 0 0 0 0 0 0 0 0 0 0 0 0 0 0 0 0 0 0 0 0 -0 0 0 0 0 0 0 0
0 0 0 0 0 0 0 0 0 0 0 0 0 0 0 0 0 0 0 0 0 0 0 0 0 0 0 0 0 0 0 0 0 0 0 0 0 0 0 -0 0 0 0 0 0
0 0 0 0 0 0 0 0 0 0 0 0 0 -0 0 0 0 0 0 0 0 0 0 -0 0 0 0 0 0 0 0 0 0 -0 0 -0 0 -0 -0 -0 0 0 0 0 0
0 0 0 0 0 0 0 0 0 0 0 0 0 0 0 0 0 0 0 0 0 0 0 -0 -0 0 0 -0 -0 0 0 0 0 0 -0 0 0 0 0 -0 0 0 0 0 0
0 0 0 0 0 0 0 0 0 0 0 0 0 0 0 0 0 0 0 0 0 0 0 0 0 -0 -0 -0 0 0 0 0 0 0 0 0 -0 0 0 -0 -0 -0 0 0 0
0 0 0 0 0 0 0 0 0 0 0 0 0 0 0 0 0 0 0 0 0 0 0 0 0 0 -0 -0 -0 0 0 0 0 0 0 0 -0 0 0 0 0 0 0 0 0
0 -0 0 0 0 0 0 0 0 0 0 0 0 0 0 0 0 0 0 0 0 0 0 0 0 -0 0 0 -0 0 0 0 0 0 0 0 -0 0 -0 -0 0 0 0 0 0
0 0 0 0 0 0 0 0 0 0 0 0 0 0 0 0 0 0 0 0 0 0 0 0 0 0 0 0 0 0 0 0 0 -0 0 0 0 0 0 0 0 0 0 0 0
0 0 0 0 0 0 0 0 0 0 0 0 0 0 0 0 0 0 0 0 0 0 -0 0 0 0 0 0 0 0 -0 -0 0 0 0 -0 -0 -0 -0 -0 0 0 0 0 0
0 0 0 0 0 0 0 0 0 0 0 0 0 0 -0 0 -0 0 0 0 0 -0 0 0 0 0 0 0 0 0 0 -0 -0 0 0 -0 -0 -0 -0 0 0 -0 0 0 0
0 0 0 0 0 0 0 0 0 0 0 0 0 0 0 0 0 -0 -0 0 0 0 0 0 0 0 -0 -0 -0 -0 -0 -0 0 -0 0 -0 -0 -0 -0 0 0 0 0 0 0
0 0 0 0 0 0 0 0 0 0 0 0 -0 -0 -0 -0 0 0 0 0 0 0 0 0 0 0 0 0 -0 0 -0 -0 0 -0 -0 -0 -0 0 0 0 0 0 0 0 0
Wind_Speed_500mb
56 54 51 48 46 42 40 37 33 33 38 45 48 45 37 33 30 28 8 9 13 20 23 20 21 15 37 22 25 27 18 35 52 41 34 6 9 12 9 19 14 22 19 13 25
55 49 47 43 37 36 39 42 45 45 43 41 38 34 33 36 17 24 22 23 29 29 29 15 4 11 15 25 22 27 27 48 23 34 33 26 36 32 14 15 19 20 16 17 13
57 49 46 33 30 31 35 40 44 46 41 40 36 34 25 19 16 10 22 25 20 22 25 22 3 9 14 12 29 25 47 38 31 43 43 45 39 30 27 29 27 29 14 13 10
60 51 49 30 27 29 29 33 38 37 30 31 34 38 31 27 9 16 15 20 22 24 12 11 8 7 7 21 16 27 43 50 44 43 37 30 42 40 48 54 31 33 25 16 16
66 54 51 37 28 32 35 34 30 23 23 25 27 27 26 26 17 17 21 24 21 28 13 11 15 22 20 12 15 40 34 38 28 43 63 43 48 43 56 25 36 43 42 33 32
67 60 50 41 28 32 32 28 25 21 22 25 23 19 18 18 31 25 18 17 16 17 6 11 14 21 9 16 23 26 37 40 37 62 53 30 45 53 79 52 51 54 65 65 58
69 63 52 44 32 32 32 29 23 18 18 22 21 20 9 18 33 24 17 13 14 13 14 18 16 17 13 13 20 26 33 35 45 43 33 44 51 68 53 50 39 41 43 51 47
71 62 56 45 38 33 32 32 30 24 22 26 17 18 8 24 24 19 25 24 19 19 20 19 17 19 18 17 18 15 21 25 11 34 44 26 62 61 46 47 59 63 65 56 48
71 66 58 53 37 33 32 38 27 26 22 29 14 13 6 25 30 10 20 23 19 16 16 14 11 17 6 15 22 24 31 30 24 27 23 45 44 23 38 33 39 49 56 66 56
76 69 64 53 34 29 27 35 28 13 10 19 9 6 3 21 33 13 14 26 25 19 12 16 17 16 16 19 32 36 33 34 26 7 15 28 42 36 40 29 23 33 35 47 49
78 74 70 53 26 14 21 25 26 7 29 21 25 15 20 27 30 11 17 26 4 15 18 18 18 26 39 37 43 40 42 48 35 35 31 39 34 28 26 34 26 37 34 32 41
79 76 68 47 20 6 15 17 18 20 25 42 38 37 23 25 25 24 20 16 22 26 18 13 33 34 37 36 38 41 45 43 45 38 33 39 47 32 36 35 35 34 40 39 40
79 78 61 34 16 11 14 24 38 35 12 20 6 9 5 33 31 20 29 14 29 23 19 27 29 22 24 33 38 42 44 39 44 35 37 38 52 47 46 35 39 47 47 44 41
77 74 52 23 8 19 15 34 42 12 7 7 2 3 16 37 8 37 5 29 14 21 14 21 13 13 27 38 35 40 34 43 40 36 36 35 40 38 16 19 35 50 53 49 38
74 69 35 19 11 18 28 38 24 4 10 11 4 2 37 22 35 16 29 15 24 27 14 15 21 21 28 26 28 34 34 38 42 41 40 36 23 34 28 30 36 32 55 48 31
75 60 23 9 17 27 32 30 3 2 9 5 10 24 28 42 9 32 23 16 19 15 17 37 29 20 25 28 27 28 22 19 13 19 22 38 31 35 37 38 25 25 36 39 29
76 48 14 15 31 28 32 8 5 6 8 5 14 23 39 15 25 23 30 21 10 11 7 20 12 7 12 11 12 13 18 14 15 17 23 29 28 38 10 33 30 12 17 18 12
75 45 8 22 30 34 22 1 9 3 5 15 18 43 13 18 22 22 17 19 7 7 8 9 4 2 8 4 15 22 28 17 17 24 29 24 23 31 42 51 34 27 18 27 24
75 22 6 29 36 18 4 3 5 4 10 15 30 11 7 11 19 18 13 12 8 5 7 9 12 20 36 25 10 7 24 34 33 36 20 15 29 43 38 37 38 46 38 36 35
71 10 15 45 22 13 2 6 5 8 19 12 10 6 18 25 19 20 9 6 2 5 3 6 20 15 21 15 20 37 8 7 10 9 18 22 32 26 17 41 44 42 42 48 45
56 10 21 41 17 17 5 8 10 18 18 8 10 17 16 20 8 13 12 17 11 6 10 14 13 12 22 13 17 9 7 13 7 9 9 17 13 14 23 24 8 25 41 49 53
35 6 30 28 12 8 6 16 17 13 23 10 12 17 13 12 12 13 14 11 7 23 13 9 10 16 35 40 33 27 29 30 12 10 16 20 29 18 8 12 7 22 21 28 43
28 13 19 21 7 9 14 11 10 15 24 12 12 7 17 15 13 16 22 14 22 14 8 4 7 14 12 5 7 11 17 32 12 4 17 12 5 8 10 11 12 12 14 19 21
18 9 12 19 11 8 12 7 18 23 21 12 23 20 15 13 21 20 34 19 15 27 46 35 12 24 23 31 15 26 35 28 25 15 29 41 40 36 30 31 24 19 24 21 22
19 6 6 11 8 19 10 8 21 18 9 25 9 13 18 14 39 15 18 26 32 45 16 10 14 25 34 46 43 39 43 46 45 43 33 50 42 40 34 30 27 29 31 23 19
12 11 9 14 19 18 5 5 20 19 15 17 16 32 32 23 31 55 39 24 12 12 6 4 11 22 38 44 42 39 47 42 42 46 49 51 60 44 50 57 47 51 43 40 34
20 10 3 8 11 10 5 11 19 36 22 28 32 37 43 38 42 62 71 65 27 11 5 6 7 9 16 18 28 19 11 9 11 32 36 45 53 32 36 29 30 40 42 50 41
Wind_Direction_500mb
3 359 356 354 355 1 4 4 3 358 348 344 344 340 335 327 332 323 1 62 32 355 295 271 259 221 205 207 200 196 233 240 231 230 241 158 221 238 234 231 206 207 243 283 302
7 5 358 355 5 8 4 358 352 345 344 349 351 346 334 333 41 73 80 18 3 356 4 339 308 225 188 204 206 204 229 238 245 240 248 248 242 249 233 203 226 242 234 285 322
9 8 3 0 5 2 355 348 342 337 351 359 9 15 349 359 89 59 24 19 3 352 340 337 221 176 231 212 204 219 241 238 242 239 237 247 251 241 246 243 232 241 254 271 276
11 9 7 3 1 358 354 344 335 336 360 6 12 18 37 40 52 19 353 344 334 331 276 274 177 185 242 235 228 258 246 254 260 252 253 248 255 242 237 240 241 253 264 231 234
11 9 7 5 358 356 352 352 352 349 359 356 357 16 44 52 32 8 335 335 339 339 277 247 193 187 225 226 296 251 269 269 286 258 263 266 260 262 254 236 235 246 251 246 248
8 9 3 1 356 354 352 353 348 337 348 353 351 4 31 42 7 6 337 348 331 345 352 274 249 238 234 216 237 271 291 283 279 263 259 256 270 260 254 246 242 250 260 262 256
5 4 1 354 346 345 346 345 342 315 317 331 342 342 4 6 9 18 1 327 319 311 297 285 260 200 196 249 246 272 291 290 268 260 269 247 262 246 258 251 242 228 241 247 245
2 360 358 347 339 339 339 333 319 300 291 323 308 323 241 356 4 12 12 1 328 313 305 275 258 231 225 256 276 277 274 274 283 247 234 215 254 254 254 232 230 235 238 246 246
359 358 354 348 332 329 336 341 323 305 285 317 291 319 238 344 349 336 351 347 322 304 298 237 196 215 192 235 263 250 262 261 288 260 258 215 254 274 252 232 233 233 233 239 241
357 355 351 345 331 329 338 346 336 307 297 320 282 314 236 342 346 343 337 336 312 317 275 202 203 222 223 227 253 264 253 247 253 241 304 270 259 276 277 286 280 260 249 242 238
354 351 350 345 337 337 347 6 4 327 315 275 277 267 279 331 349 324 349 324 267 287 258 243 239 238 243 236 252 269 265 265 254 264 277 279 277 277 277 287 267 273 262 253 239
353 348 349 347 355 41 0 27 4 317 296 298 273 262 275 331 311 302 325 327 317 295 284 251 250 263 262 250 247 251 256 258 271 258 262 274 278 270 275 271 267 266 268 257 250
352 347 351 354 27 20 26 4 342 325 278 302 271 241 281 331 310 306 324 312 305 290 278 261 276 286 254 244 247 247 246 249 246 256 253 270 273 271 270 259 255 260 255 253 250
353 348 352 4 54 19 14 350 335 324 296 297 5 59 351 338 264 318 327 331 282 292 296 274 288 267 252 251 250 257 246 251 253 254 259 233 265 262 245 266 231 234 245 245 247
355 350 357 31 26 12 342 339 341 53 304 7 4 320 337 347 303 345 315 310 281 280 267 263 280 271 263 255 242 258 270 248 251 253 253 238 249 257 245 256 244 232 235 241 234
355 352 2 1 352 337 335 340 70 255 253 343 333 339 331 330 290 317 325 308 284 280 255 258 269 272 257 260 255 258 251 251 267 279 248 244 233 252 235 244 263 240 228 226 219
353 351 11 6 346 346 339 340 297 221 348 355 326 331 324 299 313 333 324 313 320 307 332 300 234 244 246 264 237 218 223 234 243 224 247 241 241 247 264 226 231 176 177 168 150
352 346 331 348 335 327 327 130 236 47 296 341 331 316 304 347 334 321 300 321 255 269 292 324 295 60 59 300 294 268 237 227 247 250 259 229 242 245 230 235 215 212 222 265 277
351 6 344 343 343 347 315 270 297 343 337 318 314 286 293 309 334 326 306 296 328 97 321 291 255 300 292 292 251 260 229 245 258 259 269 265 249 256 250 224 223 227 227 233 249
351 25 8 343 347 353 55 278 299 348 348 315 297 296 309 319 327 337 301 279 269 130 333 298 291 266 290 301 257 229 115 203 204 235 231 239 254 251 233 223 212 211 206 217 235
353 3 350 349 354 31 60 301 307 326 11 310 290 289 290 316 267 310 271 282 263 234 257 281 235 273 305 242 246 188 218 212 231 210 257 270 255 288 265 237 221 233 225 220 221
355 340 346 359 41 37 353 321 311 303 343 302 289 273 269 297 287 301 264 243 256 307 274 260 279 276 274 270 266 266 261 249 249 214 235 262 270 295 325 238 222 247 212 212 223
346 311 345 16 44 1 330 317 297 317 332 327 304 301 304 294 295 266 274 278 292 287 262 215 242 292 291 158 127 213 247 240 251 235 233 256 226 124 34 36 341 246 204 208 223
353 340 351 50 97 13 341 327 336 318 305 301 289 291 302 286 278 280 280 296 294 277 262 254 214 228 255 271 286 276 281 271 240 257 277 256 266 265 283 306 306 284 252 234 238
13 52 5 331 355 335 318 286 329 350 295 304 277 242 320 294 307 252 287 287 272 278 280 229 271 262 260 274 279 270 267 267 259 257 250 272 279 263 268 279 287 283 281 283 271
16 2 348 300 305 314 340 314 317 328 296 298 255 301 309 278 272 289 295 300 278 300 241 249 272 296 281 272 264 266 266 263 252 254 253 255 262 262 268 270 266 262 261 272 275
17 343 336 298 318 310 327 331 306 317 292 264 289 307 299 294 299 289 285 278 252 260 285 270 268 279 278 317 305 265 299 290 257 257 255 248 254 271 259 257 260 253 252 251 261
Wind_Speed_850mb
56 54 51 48 46 42 40 37 33 33 38 45 48 45 37 33 30 28 8 9 13 20 23 20 21 15 37 22 25 27 18 35 52 41 34 6 9 12 9 19 14 22 19 13 25
55 49 47 43 37 36 39 42 45 45 43 41 38 34 33 36 17 24 22 23 29 29 29 15 4 11 15 25 22 27 27 48 23 34 33 26 36 32 14 15 19 20 16 17 13
57 49 46 33 30 31 35 40 44 46 41 40 36 34 25 19 16 10 22 25 20 22 25 22 3 9 14 12 29 25 47 38 31 43 43 45 39 30 27 29 27 29 14 13 10
60 51 49 30 27 29 29 33 38 37 30 31 34 38 31 27 9 16 15 20 22 24 12 11 8 7 7 21 16 27 43 50 44 43 37 30 42 40 48 54 31 33 25 16 16
66 54 51 37 28 32 35 34 30 23 23 25 27 27 26 26 17 17 21 24 21 28 13 11 15 22 20 12 15 40 34 38 28 43 63 43 48 43 56 25 36 43 42 33 32
67 60 50 41 28 32 32 28 25 21 22 25 23 19 18 18 31 25 18 17 16 17 6 11 14 21 9 16 23 26 37 40 37 62 53 30 45 53 79 52 51 54 65 65 58
69 63 52 44 32 32 32 29 23 18 18 22 21 20 9 18 33 24 17 13 14 13 14 18 16 17 13 13 20 26 33 35 45 43 33 44 51 68 53 50 39 41 43 51 47
71 62 56 45 38 33 32 32 30 24 22 26 17 18 8 24 24 19 25 24 19 19 20 19 17 19 18 17 18 15 21 25 11 34 44 26 62 61 46 47 59 63 65 56 48
71 66 58 53 37 33 32 38 27 26 22 29 14 13 6 25 30 10 20 23 19 16 16 14 11 17 6 15 22 24 31 30 24 27 23 45 44 23 38 33 39 49 56 66 56
76 69 64 53 34 29 27 35 28 13 10 19 9 6 3 21 33 13 14 26 25 19 12 16 17 16 16 19 32 36 33 34 26 7 15 28 42 36 40 29 23 33 35 47 49
78 74 70 53 26 14 21 25 26 7 29 21 25 15 20 27 30 11 17 26 4 15 18 18 18 26 39 37 43 40 42 48 35 35 31 39 34 28 26 34 26 37 34 32 41
79 76 68 47 20 6 15 17 18 20 25 42 38 37 23 25 25 24 20 16 22 26 18 13 33 34 37 36 38 41 45 43 45 38 33 39 47 32 36 35 35 34 40 39 40
79 78 61 34 16 11 14 24 38 35 12 20 6 9 5 33 31 20 29 14 29 23 19 27 29 22 24 33 38 42 44 39 44 35 37 38 52 47 46 35 39 47 47 44 41
77 74 52 23 8 19 15 34 42 12 7 7 2 3 16 37 8 37 5 29 14 21 14 21 13 13 27 38 35 40 34 43 40 36 36 35 40 38 16 19 35 50 53 49 38
74 69 35 19 11 18 28 38 24 4 10 11 4 2 37 22 35 16 29 15 24 27 14 15 21 21 28 26 28 34 34 38 42 41 40 36 23 34 28 30 36 32 55 48 31
75 60 23 9 17 27 32 30 3 2 9 5 10 24 28 42 9 32 23 16 19 15 17 37 29 20 25 28 27 28 22 19 13 19 22 38 31 35 37 38 25 25 36 39 29
76 48 14 15 31 28 32 8 5 6 8 5 14 23 39 15 25 23 30 21 10 11 7 20 12 7 12 11 12 13 18 14 15 17 23 29 28 38 10 33 30 12 17 18 12
75 45 8 22 30 34 22 1 9 3 5 15 18 43 13 18 22 22 17 19 7 7 8 9 4 2 8 4 15 22 28 17 17 24 29 24 23 31 42 51 34 27 18 27 24
75 22 6 29 36 18 4 3 5 4 10 15 30 11 7 11 19 18 13 12 8 5 7 9 12 20 36 25 10 7 24 34 33 36 20 15 29 43 38 37 38 46 38 36 35
71 10 15 45 22 13 2 6 5 8 19 12 10 6 18 25 19 20 9 6 2 5 3 6 20 15 21 15 20 37 8 7 10 9 18 22 32 26 17 41 44 42 42 48 45
56 10 21 41 17 17 5 8 10 18 18 8 10 17 16 20 8 13 12 17 11 6 10 14 13 12 22 13 17 9 7 13 7 9 9 17 13 14 23 24 8 25 41 49 53
35 6 30 28 12 8 6 16 17 13 23 10 12 17 13 12 12 13 14 11 7 23 13 9 10 16 35 40 33 27 29 30 12 10 16 20 29 18 8 12 7 22 21 28 43
28 13 19 21 7 9 14 11 10 15 24 12 12 7 17 15 13 16 22 14 22 14 8 4 7 14 12 5 7 11 17 32 12 4 17 12 5 8 10 11 12 12 14 19 21
18 9 12 19 11 8 12 7 18 23 21 12 23 20 15 13 21 20 34 19 15 27 46 35 12 24 23 31 15 26 35 28 25 15 29 41 40 36 30 31 24 19 24 21 22
19 6 6 11 8 19 10 8 21 18 9 25 9 13 18 14 39 15 18 26 32 45 16 10 14 25 34 46 43 39 43 46 45 43 33 50 42 40 34 30 27 29 31 23 19
12 11 9 14 19 18 5 5 20 19 15 17 16 32 32 23 31 55 39 24 12 12 6 4 11 22 38 44 42 39 47 42 42 46 49 51 60 44 50 57 47 51 43 40 34
20 10 3 8 11 10 5 11 19 36 22 28 32 37 43 38 42 62 71 65 27 11 5 6 7 9 16 18 28 19 11 9 11 32 36 45 53 32 36 29 30 40 42 50 41
Wind_Direction_850mb
3 359 356 354 355 1 4 4 3 358 348 344 344 340 335 327 332 323 1 62 32 355 295 271 259 221 205 207 200 196 233 240 231 230 241 158 221 238 234 231 206 207 243 283 302
7 5 358 355 5 8 4 358 352 345 344 349 351 346 334 333 41 73 80 18 3 356 4 339 308 225 188 204 206 204 229 238 245 240 248 248 242 249 233 203 226 242 234 285 322
9 8 3 0 5 2 355 348 342 337 351 359 9 15 349 359 89 59 24 19 3 352 340 337 221 176 231 212 204 219 241 238 242 239 237 247 251 241 246 243 232 241 254 271 276
11 9 7 3 1 358 354 344 335 336 360 6 12 18 37 40 52 19 353 344 334 331 276 274 177 185 242 235 228 258 246 254 260 252 253 248 255 242 237 240 241 253 264 231 234
11 9 7 5 358 356 352 352 352 349 359 356 357 16 44 52 32 8 335 335 339 339 277 247 193 187 225 226 296 251 269 269 286 258 263 266 260 262 254 236 235 246 251 246 248
8 9 3 1 356 354 352 353 348 337 348 353 351 4 31 42 7 6 337 348 331 345 352 274 249 238 234 216 237 271 291 283 279 263 259 256 270 260 254 246 242 250 260 262 256
5 4 1 354 346 345 346 345 342 315 317 331 342 342 4 6 9 18 1 327 319 311 297 285 260 200 196 249 246 272 291 290 268 260 269 247 262 246 258 251 242 228 241 247 245
2 360 358 347 339 339 339 333 319 300 291 323 308 323 241 356 4 12 12 1 328 313 305 275 258 231 225 256 276 277 274 274 283 247 234 215 254 254 254 232 230 235 238 246 246
359 358 354 348 332 329 336 341 323 305 285 317 291 319 238 344 349 336 351 347 322 304 298 237 196 215 192 235 263 250 262 261 288 260 258 215 254 274 252 232 233 233 233 239 241
357 355 351 345 331 329 338 346 336 307 297 320 282 314 236 342 346 343 337 336 312 317 275 202 203 222 223 227 253 264 253 247 253 241 304 270 259 276 277 286 280 260 249 242 238
354 351 350 345 337 337 347 6 4 327 315 275 277 267 279 331 349 324 349 324 267 287 258 243 239 238 243 236 252 269 265 265 254 264 277 279 277 277 277 287 267 273 262 253 239
353 348 349 347 355 41 0 27 4 317 296 298 273 262 275 331 311 302 325 327 317 295 284 251 250 263 262 250 247 251 256 258 271 258 262 274 278 270 275 271 267 266 268 257 250
352 347 351 354 27 20 26 4 342 325 278 302 271 241 281 331 310 306 324 312 305 290 278 261 276 286 254 244 247 247 246 249 246 256 253 270 273 271 270 259 255 260 255 253 250
353 348 352 4 54 19 14 350 335 324 296 297 5 59 351 338 264 318 327 331 282 292 296 274 288 267 252 251 250 257 246 251 253 254 259 233 265 262 245 266 231 234 245 245 247
355 350 357 31 26 12 342 339 341 53 304 7 4 320 337 347 303 345 315 310 281 280 267 263 280 271 263 255 242 258 270 248 251 253 253 238 249 257 245 256 244 232 235 241 234
355 352 2 1 352 337 335 340 70 255 253 343 333 339 331 330 290 317 325 308 284 280 255 258 269 272 257 260 255 258 251 251 267 279 248 244 233 252 235 244 263 240 228 226 219
353 351 11 6 346 346 339 340 297 221 348 355 326 331 324 299 313 333 324 313 320 307 332 300 234 244 246 264 237 218 223 234 243 224 247 241 241 247 264 226 231 176 177 168 150
352 346 331 348 335 327 327 130 236 47 296 341 331 316 304 347 334 321 300 321 255 269 292 324 295 60 59 300 294 268 237 227 247 250 259 229 242 245 230 235 215 212 222 265 277
351 6 344 343 343 347 315 270 297 343 337 318 314 286 293 309 334 326 306 296 328 97 321 291 255 300 292 292 251 260 229 245 258 259 269 265 249 256 250 224 223 227 227 233 249
351 25 8 343 347 353 55 278 299 348 348 315 297 296 309 319 327 337 301 279 269 130 333 298 291 266 290 301 257 229 115 203 204 235 231 239 254 251 233 223 212 211 206 217 235
353 3 350 349 354 31 60 301 307 326 11 310 290 289 290 316 267 310 271 282 263 234 257 281 235 273 305 242 246 188 218 212 231 210 257 270 255 288 265 237 221 233 225 220 221
355 340 346 359 41 37 353 321 311 303 343 302 289 273 269 297 287 301 264 243 256 307 274 260 279 276 274 270 266 266 261 249 249 214 235 262 270 295 325 238 222 247 212 212 223
346 311 345 16 44 1 330 317 297 317 332 327 304 301 304 294 295 266 274 278 292 287 262 215 242 292 291 158 127 213 247 240 251 235 233 256 226 124 34 36 341 246 204 208 223
353 340 351 50 97 13 341 327 336 318 305 301 289 291 302 286 278 280 280 296 294 277 262 254 214 228 255 271 286 276 281 271 240 257 277 256 266 265 283 306 306 284 252 234 238
13 52 5 331 355 335 318 286 329 350 295 304 277 242 320 294 307 252 287 287 272 278 280 229 271 262 260 274 279 270 267 267 259 257 250 272 279 263 268 279 287 283 281 283 271
16 2 348 300 305 314 340 314 317 328 296 298 255 301 309 278 272 289 295 300 278 300 241 249 272 296 281 272 264 266 266 263 252 254 253 255 262 262 268 270 266 262 261 272 275
17 343 336 298 318 310 327 331 306 317 292 264 289 307 299 294 299 289 285 278 252 260 285 270 268 279 278 317 305 265 299 290 257 257 255 248 254 271 259 257 260 253 252 251 261